• En España
  • Lista de países
  • Para 7 días
  • Temperatura del agua
  • Mapa Satelital
  • El tiempo en el mapa
  • Informadores
  • user-avatar
    Iniciar sesión

    Tiempo cada hora Madrid

    Hoy, 15 Diciembre, Viernes

    Tiempo Temperatura Precipitaciones Viento Presión Humedad
    00:00 +9°C° 0 mm 6 mps 704 mmHg 91%
    01:00 +9°C° 0 mm 6 mps 704 mmHg 90%
    02:00 +8°C° 0 mm 6 mps 704 mmHg 88%
    03:00 +8°C° 0 mm 5 mps 704 mmHg 87%
    04:00 +8°C° 0 mm 5 mps 703 mmHg 86%
    05:00 +7°C° 0 mm 4 mps 703 mmHg 86%
    06:00 +7°C° 0 mm 4 mps 703 mmHg 86%
    07:00 +7°C° 0 mm 4 mps 702 mmHg 86%
    08:00 +7°C° 0 mm 4 mps 702 mmHg 85%
    09:00 +8°C° 0 mm 5 mps 702 mmHg 85%
    10:00 +8°C° 0,1 mm 5 mps 702 mmHg 80%
    11:00 +9°C° 0,1 mm 5 mps 702 mmHg 74%
    12:00 +10°C° 0 mm 3 mps 702 mmHg 73%
    13:00 +10°C° 0,1 mm 3 mps 702 mmHg 69%
    14:00 +10°C° 0,1 mm 4 mps 702 mmHg 65%
    15:00 +11°C° 0,1 mm 4 mps 702 mmHg 61%
    16:00 +10°C° 0 mm 4 mps 702 mmHg 62%
    17:00 +7°C° 0 mm 4 mps 703 mmHg 63%
    18:00 +6°C° 0 mm 4 mps 703 mmHg 64%
    19:00 +6°C° 0 mm 4 mps 704 mmHg 65%
    20:00 +5°C° 0 mm 3 mps 704 mmHg 65%
    21:00 +4°C° 0 mm 3 mps 705 mmHg 66%
    22:00 +3°C° 0 mm 3 mps 705 mmHg 67%
    23:00 +4°C° 0 mm 2 mps 705 mmHg 68%

    Mañana, 16 Diciembre, Sábado

    Tiempo Temperatura Precipitaciones Viento Presión Humedad
    00:00 +3°C° 0 mm 2 mps 706 mmHg 69%
    01:00 +3°C° 0 mm 2 mps 706 mmHg 70%
    02:00 +3°C° 0 mm 2 mps 706 mmHg 71%
    03:00 +2°C° 0 mm 2 mps 707 mmHg 72%
    04:00 +2°C° 0 mm 2 mps 707 mmHg 74%
    05:00 +2°C° 0 mm 2 mps 707 mmHg 75%
    06:00 +2°C° 0 mm 2 mps 707 mmHg 76%
    07:00 +2°C° 0 mm 2 mps 708 mmHg 74%
    08:00 +3°C° 0 mm 2 mps 709 mmHg 71%
    09:00 +4°C° 0 mm 2 mps 709 mmHg 68%
    10:00 +5°C° 0 mm 2 mps 709 mmHg 61%
    11:00 +6°C° 0 mm 2 mps 710 mmHg 55%
    12:00 +7°C° 0 mm 2 mps 710 mmHg 48%
    13:00 +8°C° 0 mm 2 mps 710 mmHg 47%
    14:00 +8°C° 0 mm 2 mps 710 mmHg 46%
    15:00 +8°C° 0 mm 2 mps 710 mmHg 45%
    16:00 +7°C° 0 mm 2 mps 710 mmHg 50%
    17:00 +6°C° 0 mm 2 mps 711 mmHg 56%
    18:00 +4°C° 0 mm 2 mps 711 mmHg 61%
    19:00 +4°C° 0 mm 2 mps 712 mmHg 63%
    20:00 +4°C° 0 mm 2 mps 712 mmHg 66%
    21:00 +3°C° 0 mm 2 mps 713 mmHg 68%
    22:00 +3°C° 0 mm 2 mps 713 mmHg 70%
    23:00 +2°C° 0 mm 2 mps 713 mmHg 72%

    Pasado mañana, 17 Diciembre, Domingo

    Tiempo Temperatura Precipitaciones Viento Presión Humedad
    00:00 +2°C° 0 mm 2 mps 713 mmHg 74%
    01:00 +2°C° 0 mm 2 mps 713 mmHg 75%
    02:00 +2°C° 0 mm 2 mps 714 mmHg 76%
    03:00 +1°C° 0 mm 2 mps 714 mmHg 77%
    04:00 +1°C° 0 mm 2 mps 714 mmHg 78%
    05:00 +1°C° 0 mm 2 mps 714 mmHg 78%
    06:00 +1°C° 0 mm 2 mps 714 mmHg 79%
    07:00 +2°C° 0 mm 2 mps 714 mmHg 75%
    08:00 +2°C° 0 mm 2 mps 715 mmHg 72%
    09:00 +3°C° 0 mm 2 mps 715 mmHg 68%
    10:00 +5°C° 0 mm 2 mps 715 mmHg 63%
    11:00 +5°C° 0 mm 3 mps 715 mmHg 57%
    12:00 +7°C° 0 mm 3 mps 715 mmHg 51%
    13:00 +8°C° 0 mm 3 mps 715 mmHg 49%
    14:00 +8°C° 0 mm 3 mps 715 mmHg 48%
    15:00 +9°C° 0 mm 3 mps 715 mmHg 47%
    16:00 +7°C° 0 mm 3 mps 715 mmHg 53%
    17:00 +6°C° 0 mm 2 mps 715 mmHg 59%
    18:00 +4°C° 0 mm 2 mps 716 mmHg 65%
    19:00 +4°C° 0 mm 2 mps 716 mmHg 67%
    20:00 +3°C° 0 mm 2 mps 717 mmHg 69%
    21:00 +3°C° 0 mm 2 mps 717 mmHg 72%
    22:00 +2°C° 0 mm 2 mps 717 mmHg 73%
    23:00 +2°C° 0 mm 2 mps 717 mmHg 74%

    18 Diciembre, Lunes

    Tiempo Temperatura Precipitaciones Viento Presión Humedad
    00:00 +2°C° 0 mm 2 mps 717 mmHg 75%
    01:00 +2°C° 0 mm 2 mps 717 mmHg 76%
    02:00 +2°C° 0 mm 2 mps 717 mmHg 76%
    03:00 +2°C° 0 mm 2 mps 717 mmHg 76%
    04:00 +2°C° 0 mm 2 mps 717 mmHg 77%
    05:00 +1°C° 0 mm 2 mps 717 mmHg 78%
    06:00 +1°C° 0 mm 2 mps 717 mmHg 78%
    07:00 +2°C° 0 mm 2 mps 718 mmHg 74%
    08:00 +3°C° 0 mm 2 mps 718 mmHg 70%
    09:00 +4°C° 0 mm 2 mps 718 mmHg 65%
    10:00 +5°C° 0 mm 2 mps 718 mmHg 59%
    11:00 +7°C° 0 mm 3 mps 718 mmHg 52%
    12:00 +9°C° 0 mm 3 mps 718 mmHg 46%
    13:00 +9°C° 0 mm 3 mps 718 mmHg 45%
    14:00 +9°C° 0 mm 3 mps 717 mmHg 44%
    15:00 +10°C° 0 mm 3 mps 717 mmHg 44%
    16:00 +8°C° 0 mm 3 mps 717 mmHg 50%
    17:00 +7°C° 0 mm 2 mps 717 mmHg 56%
    18:00 +5°C° 0 mm 2 mps 717 mmHg 62%
    19:00 +5°C° 0 mm 2 mps 717 mmHg 63%
    20:00 +5°C° 0 mm 1 mps 717 mmHg 64%
    21:00 +5°C° 0 mm 1 mps 718 mmHg 65%
    22:00 +5°C° 0 mm 1 mps 718 mmHg 65%
    23:00 +5°C° 0 mm 1 mps 717 mmHg 66%

    19 Diciembre, Martes

    Tiempo Temperatura Precipitaciones Viento Presión Humedad
    00:00 +5°C° 0 mm 1 mps 717 mmHg 66%
    01:00 +3°C° 0 mm 2 mps 717 mmHg 67%
    02:00 +3°C° 0 mm 2 mps 717 mmHg 68%
    03:00 +3°C° 0 mm 2 mps 717 mmHg 68%
    04:00 +3°C° 0 mm 2 mps 717 mmHg 70%
    05:00 +3°C° 0 mm 2 mps 717 mmHg 72%
    06:00 +3°C° 0 mm 2 mps 717 mmHg 73%
    07:00 +4°C° 0 mm 2 mps 717 mmHg 72%
    08:00 +5°C° 0 mm 2 mps 717 mmHg 71%
    09:00 +6°C° 0 mm 2 mps 717 mmHg 70%
    10:00 +8°C° 0 mm 3 mps 717 mmHg 63%
    11:00 +11°C° 0 mm 3 mps 717 mmHg 57%
    12:00 +13°C° 0 mm 4 mps 717 mmHg 51%
    13:00 +13°C° 0 mm 4 mps 717 mmHg 51%
    14:00 +14°C° 0 mm 4 mps 717 mmHg 51%
    15:00 +14°C° 0 mm 4 mps 716 mmHg 50%
    16:00 +12°C° 0 mm 4 mps 717 mmHg 58%
    17:00 +11°C° 0 mm 3 mps 717 mmHg 65%
    18:00 +9°C° 0 mm 3 mps 717 mmHg 72%
    19:00 +8°C° 0 mm 3 mps 717 mmHg 74%
    20:00 +8°C° 0 mm 2 mps 718 mmHg 76%
    21:00 +7°C° 0 mm 2 mps 718 mmHg 78%
    22:00 +6°C° 0 mm 2 mps 718 mmHg 80%
    23:00 +6°C° 0 mm 2 mps 718 mmHg 81%

    20 Diciembre, Miércoles

    Tiempo Temperatura Precipitaciones Viento Presión Humedad
    00:00 +6°C° 0 mm 2 mps 719 mmHg 83%
    01:00 +5°C° 0 mm 2 mps 719 mmHg 84%
    02:00 +5°C° 0 mm 2 mps 719 mmHg 85%
    03:00 +5°C° 0 mm 2 mps 719 mmHg 85%
    04:00 +4°C° 0 mm 2 mps 719 mmHg 85%
    05:00 +4°C° 0 mm 2 mps 719 mmHg 85%
    06:00 +4°C° 0 mm 2 mps 719 mmHg 85%
    07:00 +6°C° 0 mm 1 mps 719 mmHg 82%
    08:00 +6°C° 0 mm 1 mps 720 mmHg 79%
    09:00 +7°C° 0 mm 1 mps 720 mmHg 77%
    10:00 +8°C° 0 mm 1 mps 720 mmHg 70%
    11:00 +10°C° 0 mm 1 mps 720 mmHg 63%
    12:00 +11°C° 0 mm 1 mps 720 mmHg 56%
    13:00 +11°C° 0 mm 1 mps 719 mmHg 54%
    14:00 +12°C° 0 mm 1 mps 719 mmHg 52%
    15:00 +12°C° 0 mm 1 mps 719 mmHg 50%
    16:00 +11°C° 0 mm 1 mps 719 mmHg 57%
    17:00 +9°C° 0 mm 1 mps 719 mmHg 64%
    18:00 +8°C° 0 mm 1 mps 719 mmHg 71%
    19:00 +7°C° 0 mm 1 mps 719 mmHg 72%
    20:00 +7°C° 0 mm 1 mps 720 mmHg 74%
    21:00 +5°C° 0 mm 0 mps 720 mmHg 76%
    22:00 +5°C° 0 mm 0 mps 720 mmHg 75%
    23:00 +6°C° 0 mm 1 mps 720 mmHg 75%
    Mostrar más